Location: Unspecified
(44.4377°N, 88.0525°W)
Time: 17:39:08
(UTC-05:00)

Okean 3 - Pass Details

Date: 22 April 2019
Orbit: 576 x 602 km, 82.5° (Epoch: 18 May)

Event Time Altitude Azimuth Distance (km) Brightness Sun altitude
Exits shadow 01:03:55 16° 45° (NE) 1,592 6.1 -33.4°
Drops below altitude 10° 01:05:01 10° 34° (NE) 1,924 6.7 -33.4°
Sets 01:07:30 0° 21° (NNE) 2,825 7.9 -33.3°
